Tracking 19709 objects as of 20-Jun-2019
HD Live streaming from Space Station
objects crossing your sky now

LEMUR 2 ALEXANDER

Track LEMUR 2 ALEXANDER now!
10-day predictions
LEMUR 2 ALEXANDER is classified as:


NORAD ID: 43559
Int'l Code: 2018-046F
Perigee: 478.8 km
Apogee: 490.5 km
Inclination: 51.6 °
Period: 94.2 minutes
Semi major axis: 6855 km
RCS: Unknown
Launch date: May 21, 2018
Source: United States (US)
Launch site: WALLOPS ISLAND (WLPIS)
aabbcc
Your satellite tracking list
Your tracking list is empty




NASA's NSSDC Master Catalog

Two Line Element Set (TLE):
1 43559U 18046F   19171.19844425  .00002126  00000-0  85814-4 0  9992
2 43559  51.6436  48.4483 0008491  78.2901 281.9032 15.29437596 51577
Source of the keplerian elements: AFSPC